period_start,C,m1,H,J0,J1,J2,J3,J4,J5,JA,JB,JC,JD,JJ,JK,JN,#
2013-11-11 00:00:05,0.10,1.51,0.00,21.28,22.89,25.79,6.01,31.33,1013.69,2062.00,2884.59,2966.05,3162.03,349.90,325.03,15.02,0000 0000 0000 0000 000000
2013-11-11 00:01:05,0.11,1.51,0.00,21.30,22.89,25.77,6.10,31.33,1013.69,2062.00,2884.22,2965.99,3161.88,350.21,325.10,15.02,0000 0000 0000 0000 000000
2013-11-11 00:02:05,0.09,1.51,0.00,21.32,22.89,25.74,6.07,31.29,1013.69,2062.00,2884.08,2965.80,3161.45,350.15,324.38,15.03,0000 0000 0000 0000 000000
2013-11-11 00:03:06,0.15,1.51,0.00,21.33,22.89,25.73,5.80,31.17,1013.69,2062.00,2883.88,2965.40,3161.18,348.98,323.50,15.03,0000 0000 0000 0000 000000
2013-11-11 00:04:06,0.17,1.51,0.00,21.34,22.89,25.73,6.00,31.00,1013.69,2062.00,2883.47,2965.16,3161.07,350.35,325.17,15.04,0000 0000 0000 0000 000000
2013-11-11 00:05:06,0.14,1.51,0.00,21.33,22.89,25.74,5.63,30.63,1013.70,2062.00,2883.17,2965.05,3161.00,349.01,323.95,15.05,0000 0000 0000 0000 000000
2013-11-11 00:06:07,0.08,1.51,0.00,21.33,22.89,25.74,5.78,31.13,1013.71,2062.00,2883.03,2965.01,3160.77,348.02,323.03,15.05,0000 0000 0000 0000 000000
2013-11-11 00:07:07,0.08,1.51,0.00,21.33,22.89,25.73,6.03,31.42,1013.79,2062.00,2882.76,2964.86,3160.35,350.30,325.40,15.06,0000 0000 0000 0000 000000
2013-11-11 00:08:07,0.14,1.51,0.00,21.33,22.89,25.74,5.98,31.29,1013.91,2062.00,2882.35,2964.42,3160.13,350.13,325.11,15.06,0000 0000 0000 0000 000000
2013-11-11 00:09:08,0.20,1.51,0.00,21.34,22.89,25.75,6.03,31.38,1013.92,2062.00,2882.12,2964.15,3160.05,350.78,325.65,15.07,0000 0000 0000 0000 000000
2013-11-11 00:10:08,0.10,1.51,0.00,21.34,22.89,25.76,5.91,31.42,1013.97,2062.00,2882.00,2964.05,3160.00,349.19,324.18,15.08,0000 0000 0000 0000 000000
2013-11-11 00:11:09,0.05,1.51,0.00,21.34,22.89,25.78,6.06,31.08,1014.02,2062.00,2881.68,2964.01,3159.76,350.77,325.78,15.08,0000 0000 0000 0000 000000
2013-11-11 00:12:09,0.10,1.51,0.00,21.31,22.89,25.76,6.16,31.58,1014.08,2062.00,2881.29,2963.98,3159.32,350.70,325.66,15.09,0000 0000 0000 0000 000000
2013-11-11 00:13:09,0.14,1.51,0.00,21.29,22.89,25.72,5.88,30.75,1014.12,2062.00,2881.10,2963.71,3159.12,349.57,324.60,15.09,0000 0000 0000 0000 000000
2013-11-11 00:14:10,0.12,1.52,0.00,21.28,22.89,25.72,5.93,31.13,1014.15,2062.00,2880.97,2963.27,3159.03,349.32,323.83,15.10,0000 0000 0000 0000 000000
2013-11-11 00:15:10,0.15,1.52,0.00,21.31,22.89,25.72,6.00,31.21,1014.17,2062.00,2880.50,2963.09,3158.91,349.88,324.94,15.10,0000 0000 0000 0000 000000
2013-11-11 00:16:11,0.13,1.52,0.00,21.31,22.89,25.74,5.87,30.92,1014.16,2062.00,2880.18,2963.03,3158.56,349.76,324.82,15.11,0000 0000 0000 0000 000000
2013-11-11 00:17:11,0.11,1.52,0.00,21.31,22.89,25.72,5.96,30.92,1014.17,2062.00,2880.06,2962.97,3158.24,350.26,324.84,15.12,0000 0000 0000 0000 000000
2013-11-11 00:18:11,0.08,1.52,0.00,21.32,22.89,25.71,6.08,31.71,1014.17,2062.00,2879.89,2962.70,3158.09,351.18,326.12,15.12,0000 0000 0000 0000 000000
2013-11-11 00:19:11,0.11,1.52,0.00,21.34,22.89,25.71,5.82,30.67,1014.17,2062.00,2879.48,2962.33,3158.03,349.77,325.13,15.13,0000 0000 0000 0000 000000
2013-11-11 00:20:12,0.18,1.52,0.00,21.37,22.89,25.72,6.05,31.42,1014.17,2062.00,2879.18,2962.13,3157.96,350.09,325.56,15.13,0000 0000 0000 0000 000000
2013-11-11 00:21:12,0.10,1.52,0.00,21.39,22.89,25.73,5.89,30.92,1014.17,2062.00,2879.07,2962.03,3157.73,349.52,324.51,15.14,0000 0000 0000 0000 000000
2013-11-11 00:22:12,0.07,1.52,0.00,21.39,22.89,25.75,6.06,31.42,1014.17,2062.00,2878.99,2961.98,3157.36,350.12,325.49,15.15,0000 0000 0000 0000 000000
2013-11-11 00:23:13,0.09,1.52,0.00,21.36,22.89,25.73,6.10,31.54,1014.16,2062.00,2878.59,2961.82,3157.13,349.72,324.72,15.15,0000 0000 0000 0000 000000
2013-11-11 00:24:13,0.14,1.52,0.00,21.36,22.89,25.70,6.07,31.38,1014.16,2062.00,2878.25,2961.38,3157.05,349.59,324.61,15.16,0000 0000 0000 0000 000000
2013-11-11 00:25:14,0.16,1.52,0.00,21.37,22.89,25.72,6.16,31.25,1014.17,2062.00,2878.09,2961.15,3156.93,350.83,325.74,15.16,0000 0000 0000 0000 000000
2013-11-11 00:26:14,0.11,1.52,0.00,21.39,22.89,25.68,5.88,30.75,1014.17,2062.00,2877.88,2961.05,3156.53,349.89,324.86,15.17,0000 0000 0000 0000 000000
2013-11-11 00:27:14,0.11,1.52,0.00,21.37,22.90,25.71,5.95,31.08,1014.17,2062.00,2877.44,2960.98,3156.20,350.07,325.04,15.17,0000 0000 0000 0000 000000
2013-11-11 00:28:15,0.13,1.53,0.00,21.37,22.89,25.69,6.03,31.46,1014.15,2062.00,2877.16,2960.82,3156.07,350.09,325.23,15.18,0000 0000 0000 0000 000000
2013-11-11 00:29:15,0.11,1.53,0.00,21.37,22.90,25.71,5.92,31.13,1014.15,2062.00,2877.06,2960.42,3155.99,349.67,324.79,15.19,0000 0000 0000 0000 000000
2013-11-11 00:30:15,0.12,1.53,0.00,21.36,22.89,25.71,5.94,30.96,1014.17,2062.00,2876.84,2960.16,3155.84,350.32,325.34,15.19,0000 0000 0000 0000 000000
2013-11-11 00:31:16,0.13,1.53,0.00,21.37,22.90,25.73,6.04,31.50,1014.17,2062.00,2876.35,2960.05,3155.39,351.53,326.34,15.20,0000 0000 0000 0000 000000
2013-11-11 00:32:16,0.16,1.53,0.00,21.38,22.89,25.70,5.96,30.67,1014.17,2062.00,2876.13,2960.02,3155.15,349.56,324.58,15.20,0000 0000 0000 0000 000000
2013-11-11 00:33:17,0.07,1.53,0.00,21.38,22.89,25.72,6.05,31.67,1014.17,2062.00,2876.03,2959.90,3155.05,349.84,324.75,15.21,0000 0000 0000 0000 000000
2013-11-11 00:34:17,0.09,1.53,0.00,21.38,22.89,25.70,6.02,31.42,1014.17,2062.00,2875.62,2959.44,3154.96,349.09,324.25,15.22,0000 0000 0000 0000 000000
2013-11-11 00:35:17,0.18,1.53,0.00,21.41,22.89,25.74,6.02,31.33,1014.17,2062.00,2875.24,2959.19,3154.72,349.80,324.85,15.22,0000 0000 0000 0000 000000
2013-11-11 00:36:18,0.16,1.53,0.00,21.39,22.90,25.70,6.05,31.46,1014.17,2062.00,2875.08,2959.06,3154.31,349.56,324.55,15.23,0000 0000 0000 0000 000000
2013-11-11 00:37:18,0.10,1.53,0.00,21.37,22.89,25.72,5.92,31.33,1014.17,2062.00,2875.01,2959.02,3154.13,350.28,325.23,15.23,0000 0000 0000 0000 000000
2013-11-11 00:38:19,0.05,1.53,0.00,21.34,22.90,25.69,6.02,30.83,1014.17,2062.00,2874.64,2958.98,3154.04,350.48,325.45,15.24,0000 0000 0000 0000 000000
2013-11-11 00:39:19,0.08,1.53,0.00,21.35,22.90,25.72,6.04,31.17,1014.17,2062.00,2874.27,2958.70,3153.99,350.40,325.37,15.25,0000 0000 0000 0000 000000
2013-11-11 00:40:19,0.14,1.53,0.00,21.36,22.90,25.73,5.67,30.54,1014.17,2062.00,2874.10,2958.30,3153.71,348.29,323.63,15.25,0000 0000 0000 0000 000000
2013-11-11 00:41:20,0.17,1.54,0.00,21.33,22.90,25.72,6.12,31.25,1014.19,2062.01,2873.96,2958.11,3153.30,350.45,325.51,15.26,0000 0000 0000 0000 000000
2013-11-11 00:42:20,0.14,1.54,0.00,21.36,22.90,25.72,5.88,31.42,1014.19,2062.00,2873.52,2958.04,3153.11,348.90,323.97,15.26,0000 0000 0000 0000 000000
2013-11-11 00:43:21,0.10,1.54,0.00,21.40,22.90,25.72,6.05,31.29,1014.18,2062.00,2873.19,2957.93,3153.04,349.72,324.67,15.27,0000 0000 0000 0000 000000
2013-11-11 00:44:21,0.10,1.54,0.00,21.41,22.90,25.69,5.97,31.13,1014.18,2062.00,2873.03,2957.51,3152.94,350.16,325.09,15.27,0000 0000 0000 0000 000000
2013-11-11 00:45:22,0.14,1.54,0.00,21.40,22.90,25.69,5.93,30.92,1014.18,2062.00,2872.72,2957.20,3152.57,349.51,324.49,15.28,0000 0000 0000 0000 000000
2013-11-11 00:46:22,0.18,1.54,0.00,21.43,22.90,25.69,6.02,31.00,1014.18,2062.00,2872.31,2957.07,3152.22,351.36,326.17,15.29,0000 0000 0000 0000 000000
2013-11-11 00:47:22,0.13,1.54,0.00,21.46,22.90,25.71,5.98,30.75,1014.18,2062.00,2872.11,2957.01,3152.08,350.26,325.16,15.29,0000 0000 0000 0000 000000
2013-11-11 00:48:23,0.06,1.54,0.00,21.44,22.90,25.73,5.83,30.67,1014.18,2062.00,2872.03,2956.95,3152.02,349.08,324.04,15.30,0000 0000 0000 0000 000000
2013-11-11 00:49:23,0.04,1.54,0.00,21.41,22.90,25.75,5.95,30.67,1014.18,2062.00,2871.94,2956.80,3151.99,349.93,324.88,15.30,0000 0000 0000 0000 000000
2013-11-11 00:50:24,0.09,1.54,0.00,21.40,22.90,25.74,5.74,30.67,1014.18,2062.00,2871.55,2956.47,3151.76,348.99,324.01,15.31,0000 0000 0000 0000 000000
2013-11-11 00:51:24,0.18,1.54,0.00,21.40,22.91,25.71,5.89,31.25,1014.18,2062.00,2871.21,2956.17,3151.32,349.43,324.41,15.32,0000 0000 0000 0000 000000
2013-11-11 00:52:24,0.17,1.54,0.00,21.37,22.91,25.71,6.06,31.17,1014.18,2062.00,2871.04,2956.06,3151.12,349.93,325.06,15.32,0000 0000 0000 0000 000000
2013-11-11 00:53:25,0.09,1.54,0.00,21.38,22.91,25.72,6.12,30.83,1014.18,2062.00,2870.58,2956.01,3151.02,351.21,326.10,15.33,0000 0000 0000 0000 000000
2013-11-11 00:54:25,0.10,1.54,0.00,21.39,22.92,25.74,6.06,31.29,1014.18,2062.00,2870.22,2955.72,3150.84,351.46,326.34,15.33,0000 0000 0000 0000 000000
2013-11-11 00:55:26,0.17,1.55,0.00,21.41,22.91,25.72,6.04,31.00,1014.18,2062.00,2870.08,2955.30,3150.41,350.49,325.05,15.34,0000 0000 0000 0000 000000
2013-11-11 00:56:26,0.17,1.55,0.00,21.41,22.92,25.72,5.99,31.17,1014.18,2062.00,2869.97,2955.11,3150.16,349.63,324.33,15.35,0000 0000 0000 0000 000000
2013-11-11 00:57:26,0.11,1.55,0.00,21.41,22.92,25.71,5.97,31.04,1014.18,2062.00,2869.50,2955.04,3150.06,348.98,324.53,15.35,0000 0000 0000 0000 000000
2013-11-11 00:58:27,0.09,1.55,0.00,21.41,22.92,25.71,5.93,30.96,1014.18,2062.00,2869.19,2954.99,3149.99,349.85,324.61,15.36,0000 0000 0000 0000 000000
2013-11-11 00:59:27,0.08,1.55,0.00,21.42,22.92,25.68,6.11,31.71,1014.18,2062.00,2869.07,2954.68,3149.70,349.37,324.32,15.36,0000 0000 0000 0000 000000
2013-11-11 01:00:27,0.14,1.55,0.00,21.43,22.92,25.70,5.88,30.96,1014.19,2062.00,2868.94,2954.30,3149.29,349.44,324.63,15.37,0000 0000 0000 0000 000000
2013-11-11 01:01:28,0.18,1.55,0.00,21.45,22.92,25.71,6.05,31.13,1014.19,2062.00,2868.48,2954.11,3149.11,350.81,325.65,15.37,0000 0000 0000 0000 000000
2013-11-11 01:02:28,0.13,1.55,0.00,21.43,22.92,25.72,5.95,30.88,1014.18,2062.00,2868.17,2954.04,3149.02,349.82,324.74,15.38,0000 0000 0000 0000 000000
2013-11-11 01:03:29,0.08,1.55,0.00,21.40,22.92,25.72,6.00,31.21,1014.18,2062.00,2868.06,2953.98,3148.92,351.04,325.91,15.39,0000 0000 0000 0000 000000
2013-11-11 01:04:29,0.07,1.55,0.00,21.42,22.92,25.71,6.03,31.04,1014.18,2062.00,2867.82,2953.68,3148.57,349.81,325.06,15.39,0000 0000 0000 0000 000000
2013-11-11 01:05:29,0.16,1.55,0.00,21.41,22.92,25.70,6.02,31.17,1014.18,2062.00,2867.36,2953.31,3148.23,350.38,325.32,15.40,0000 0000 0000 0000 000000
2013-11-11 01:06:30,0.19,1.55,0.00,21.41,22.92,25.74,6.02,31.38,1014.18,2062.00,2867.12,2953.12,3148.08,348.97,324.42,15.40,0000 0000 0000 0000 000000
2013-11-11 01:07:30,0.11,1.56,0.00,21.45,22.92,25.75,5.92,31.25,1014.18,2062.00,2866.95,2953.03,3148.00,349.57,324.81,15.41,0000 0000 0000 0000 000000
2013-11-11 01:08:30,0.07,1.56,0.00,21.47,22.92,25.75,5.88,30.92,1014.20,2062.00,2866.50,2952.95,3147.78,348.63,323.60,15.42,0000 0000 0000 0000 000000
2013-11-11 01:09:31,0.13,1.56,0.00,21.47,22.92,25.74,5.98,31.21,1014.19,2062.00,2866.19,2952.56,3147.39,349.47,324.05,15.42,0000 0000 0000 0000 000000
2013-11-11 01:10:31,0.18,1.56,0.00,21.48,22.92,25.71,6.07,31.21,1014.18,2062.00,2866.07,2952.21,3147.15,350.98,325.76,15.43,0000 0000 0000 0000 000000
2013-11-11 01:11:31,0.14,1.56,0.00,21.53,22.92,25.74,5.92,31.38,1014.18,2062.00,2865.86,2952.08,3147.03,349.17,323.85,15.43,0000 0000 0000 0000 000000
2013-11-11 01:12:32,0.09,1.56,0.00,21.54,22.92,25.72,5.88,31.21,1014.18,2062.00,2865.42,2952.03,3146.99,350.18,324.96,15.44,0000 0000 0000 0000 000000
2013-11-11 01:13:32,0.08,1.56,0.00,21.54,22.93,25.68,6.08,31.38,1014.20,2062.00,2865.16,2952.00,3146.76,351.05,325.49,15.44,0000 0000 0000 0000 000000
2013-11-11 01:14:32,0.09,1.56,0.00,21.55,22.93,25.72,5.95,31.17,1014.20,2062.00,2865.03,2951.79,3146.33,349.08,324.29,15.45,0000 0000 0000 0000 000000
2013-11-11 01:15:33,0.15,1.56,0.00,21.54,22.94,25.77,5.93,31.13,1014.20,2062.00,2864.66,2951.32,3146.12,351.39,326.09,15.46,0000 0000 0000 0000 000000
2013-11-11 01:16:33,0.18,1.56,0.00,21.52,22.94,25.77,5.88,30.67,1014.22,2062.00,2864.27,2951.11,3146.03,349.20,324.08,15.46,0000 0000 0000 0000 000000
2013-11-11 01:17:33,0.11,1.56,0.00,21.52,22.94,25.72,6.13,31.17,1014.20,2062.00,2864.09,2951.04,3145.94,350.29,325.10,15.47,0000 0000 0000 0000 000000
2013-11-11 01:18:34,0.06,1.56,0.00,21.51,22.94,25.71,5.87,30.83,1014.21,2062.00,2864.01,2950.99,3145.55,349.43,324.30,15.47,0000 0000 0000 0000 000000
2013-11-11 01:19:34,0.10,1.56,0.00,21.51,22.94,25.72,5.92,30.83,1014.23,2062.00,2863.70,2950.69,3145.20,349.57,324.39,15.48,0000 0000 0000 0000 000000
2013-11-11 01:20:35,0.19,1.57,0.00,21.52,22.94,25.77,6.04,31.25,1014.19,2062.00,2863.29,2950.34,3145.07,350.65,325.38,15.49,0000 0000 0000 0000 000000
2013-11-11 01:21:35,0.15,1.57,0.00,21.53,22.94,25.76,5.96,30.88,1014.20,2062.00,2863.10,2950.13,3145.02,350.35,324.95,15.49,0000 0000 0000 0000 000000
2013-11-11 01:22:36,0.08,1.57,0.00,21.54,22.94,25.72,5.97,31.17,1014.19,2062.00,2863.00,2950.05,3144.93,349.26,323.77,15.50,0000 0000 0000 0000 000000
2013-11-11 01:23:36,0.07,1.57,0.00,21.54,22.94,25.75,5.81,31.04,1014.18,2062.00,2862.59,2950.00,3144.48,350.96,325.69,15.50,0000 0000 0000 0000 000000
2013-11-11 01:24:37,0.14,1.57,0.00,21.56,22.95,25.81,5.96,30.71,1014.19,2062.00,2862.23,2949.68,3144.19,349.65,324.44,15.51,0000 0000 0000 0000 000000
2013-11-11 01:25:37,0.18,1.57,0.00,21.59,22.95,25.76,5.97,31.00,1014.20,2062.00,2862.08,2949.31,3144.07,350.64,325.76,15.52,0000 0000 0000 0000 000000
2013-11-11 01:26:37,0.12,1.57,0.00,21.59,22.95,25.75,6.15,31.58,1014.20,2062.00,2861.95,2949.11,3144.02,350.60,324.78,15.52,0000 0000 0000 0000 000000
2013-11-11 01:27:38,0.08,1.57,0.00,21.56,22.96,25.76,6.08,31.33,1014.19,2061.99,2861.49,2949.04,3143.77,349.94,324.72,15.53,0000 0000 0000 0000 000000
2013-11-11 01:28:38,0.12,1.57,0.00,21.55,22.96,25.71,5.88,30.83,1014.18,2061.99,2861.18,2948.93,3143.29,349.43,324.25,15.53,0000 0000 0000 0000 000000
2013-11-11 01:29:38,0.15,1.57,0.00,21.57,22.96,25.73,5.91,30.79,1014.18,2061.99,2861.05,2948.51,3143.10,350.22,324.97,15.54,0000 0000 0000 0000 000000
2013-11-11 01:30:39,0.14,1.57,0.00,21.56,22.97,25.74,6.04,31.38,1014.19,2061.97,2860.69,2948.23,3143.03,349.28,324.10,15.54,0000 0000 0000 0000 000000
2013-11-11 01:31:39,0.13,1.57,0.00,21.57,22.97,25.74,6.08,31.33,1014.21,2061.96,2860.26,2948.09,3142.69,350.08,324.84,15.55,0000 0000 0000 0000 000000
2013-11-11 01:32:40,0.13,1.57,0.00,21.56,22.97,25.77,6.05,30.88,1014.19,2061.94,2860.09,2948.02,3142.28,350.61,325.07,15.56,0000 0000 0000 0000 000000
2013-11-11 01:33:40,0.10,1.57,0.00,21.58,22.97,25.79,6.00,31.21,1014.20,2061.96,2859.93,2947.91,3142.10,350.46,325.14,15.56,0000 0000 0000 0000 000000
2013-11-11 01:34:40,0.13,1.58,0.00,21.57,22.97,25.76,5.92,31.04,1014.19,2061.98,2859.49,2947.58,3142.03,349.75,324.53,15.57,0000 0000 0000 0000 000000
2013-11-11 01:35:40,0.16,1.58,0.00,21.57,22.97,25.79,6.17,31.38,1014.19,2061.99,2859.18,2947.23,3141.98,351.08,326.28,15.57,0000 0000 0000 0000 000000
2013-11-11 01:36:41,0.13,1.58,0.00,21.59,22.97,25.80,5.90,30.79,1014.21,2061.99,2859.07,2947.09,3141.76,349.94,324.69,15.58,0000 0000 0000 0000 000000
2013-11-11 01:37:41,0.10,1.58,0.00,21.58,22.97,25.78,6.01,31.21,1014.20,2061.96,2858.74,2947.03,3141.34,349.70,324.93,15.59,0000 0000 0000 0000 000000
2013-11-11 01:38:42,0.10,1.58,0.00,21.62,22.98,25.74,6.16,31.71,1014.20,2061.95,2858.32,2946.97,3141.12,351.23,325.85,15.59,0000 0000 0000 0000 000000
2013-11-11 01:39:42,0.12,1.58,0.00,21.60,22.98,25.75,5.95,31.54,1014.18,2061.98,2858.11,2946.57,3141.04,350.25,325.28,15.60,0000 0000 0000 0000 000000
2013-11-11 01:40:42,0.16,1.58,0.00,21.59,22.99,25.78,6.00,31.08,1014.23,2061.99,2858.01,2946.23,3140.92,350.29,325.02,15.60,0000 0000 0000 0000 000000
2013-11-11 01:41:43,0.14,1.58,0.00,21.59,22.99,25.81,6.09,31.50,1014.22,2061.96,2857.72,2946.08,3140.57,350.19,324.96,15.61,0000 0000 0000 0000 000000
2013-11-11 01:42:43,0.13,1.58,0.00,21.58,22.99,25.78,6.05,31.71,1014.19,2061.97,2857.29,2946.00,3140.23,349.91,324.67,15.62,0000 0000 0000 0000 000000
2013-11-11 01:43:43,0.12,1.58,0.00,21.58,22.99,25.80,5.86,31.17,1014.21,2061.98,2857.10,2945.85,3140.08,350.04,324.79,15.62,0000 0000 0000 0000 000000
2013-11-11 01:44:44,0.10,1.58,0.00,21.57,22.99,25.76,5.85,30.71,1014.21,2061.97,2856.83,2945.41,3139.98,349.81,324.59,15.63,0000 0000 0000 0000 000000
2013-11-11 01:45:44,0.18,1.58,0.00,21.56,22.99,25.82,5.96,31.13,1014.21,2061.97,2856.38,2945.15,3139.55,350.59,325.33,15.63,0000 0000 0000 0000 000000
2013-11-11 01:46:44,0.16,1.59,0.00,21.58,22.99,25.84,6.04,31.67,1014.19,2061.96,2856.14,2945.05,3139.22,350.06,324.68,15.64,0000 0000 0000 0000 000000
2013-11-11 01:47:44,0.11,1.59,0.00,21.61,22.99,25.82,6.03,31.25,1014.19,2061.98,2856.01,2944.99,3139.08,349.88,324.79,15.64,0000 0000 0000 0000 000000
2013-11-11 01:48:45,0.07,1.59,0.00,21.62,22.99,25.79,6.01,31.17,1014.19,2061.99,2855.69,2944.83,3139.03,351.10,325.59,15.65,0000 0000 0000 0000 000000
2013-11-11 01:49:45,0.15,1.59,0.00,21.63,22.99,25.83,5.91,31.67,1014.23,2061.96,2855.28,2944.36,3138.85,349.33,324.47,15.66,0000 0000 0000 0000 000000
2013-11-11 01:50:45,0.19,1.59,0.00,21.65,23.00,25.84,6.15,31.04,1014.23,2061.96,2855.10,2944.13,3138.39,351.07,325.77,15.66,0000 0000 0000 0000 000000
2013-11-11 01:51:46,0.13,1.59,0.00,21.65,23.00,25.82,6.05,31.50,1014.24,2061.96,2854.87,2944.04,3138.16,350.11,324.88,15.67,0000 0000 0000 0000 000000
2013-11-11 01:52:46,0.09,1.59,0.00,21.66,23.00,25.82,5.79,31.04,1014.25,2061.94,2854.40,2943.99,3138.04,349.01,323.76,15.67,0000 0000 0000 0000 000000
2013-11-11 01:53:46,0.08,1.59,0.00,21.63,23.01,25.79,6.18,31.33,1014.26,2061.94,2854.15,2943.74,3137.86,350.11,324.82,15.68,0000 0000 0000 0000 000000
2013-11-11 01:54:47,0.17,1.59,0.00,21.64,23.02,25.84,5.95,31.29,1014.27,2061.94,2854.03,2943.32,3137.41,349.52,324.42,15.69,0000 0000 0000 0000 000000
2013-11-11 01:55:47,0.17,1.59,0.00,21.66,23.02,25.84,5.96,30.92,1014.25,2061.96,2853.72,2943.12,3137.15,349.49,324.64,15.69,0000 0000 0000 0000 000000
2013-11-11 01:56:47,0.16,1.59,0.00,21.64,23.02,25.78,5.77,30.67,1014.28,2061.98,2853.29,2943.04,3137.05,349.07,323.85,15.70,0000 0000 0000 0000 000000
2013-11-11 01:57:48,0.10,1.59,0.00,21.64,23.02,25.82,5.92,31.00,1014.24,2061.99,2853.10,2942.96,3136.98,349.79,324.50,15.70,0000 0000 0000 0000 000000
2013-11-11 01:58:48,0.06,1.59,0.00,21.65,23.02,25.81,5.85,31.04,1014.32,2061.97,2852.94,2942.63,3136.64,349.68,324.42,15.71,0000 0000 0000 0000 000000
2013-11-11 01:59:49,0.16,1.59,0.00,21.65,23.02,25.82,6.05,30.92,1014.25,2061.97,2852.45,2942.25,3136.25,351.35,325.34,15.72,0000 0000 0000 0000 000000
2013-11-11 02:00:49,0.23,1.60,0.00,21.66,23.02,25.83,5.85,30.88,1014.22,2061.97,2852.17,2942.09,3136.09,349.49,324.38,15.72,0000 0000 0000 0000 000000
2013-11-11 02:01:49,0.07,1.60,0.00,21.66,23.02,25.83,6.02,31.63,1014.21,2061.91,2852.03,2942.02,3136.02,349.97,324.64,15.73,0000 0000 0000 0000 000000
2013-11-11 02:02:50,0.02,1.60,0.00,21.66,23.03,25.84,5.91,31.46,1014.21,2061.93,2851.69,2941.95,3135.79,349.83,324.51,15.73,0000 0000 0000 0000 000000
2013-11-11 02:03:50,0.15,1.60,0.00,21.66,23.03,25.82,5.96,31.25,1014.26,2061.94,2851.28,2941.67,3135.36,349.82,324.51,15.74,0000 0000 0000 0000 000000
2013-11-11 02:04:50,0.23,1.60,0.00,21.68,23.04,25.84,5.96,31.08,1014.34,2061.95,2851.10,2941.28,3135.13,350.71,325.35,15.74,0000 0000 0000 0000 000000
2013-11-11 02:05:51,0.13,1.60,0.00,21.66,23.04,25.88,6.02,31.08,1014.33,2061.95,2851.01,2941.10,3135.05,350.07,324.77,15.75,0000 0000 0000 0000 000000
2013-11-11 02:06:51,0.06,1.60,0.00,21.65,23.04,25.86,6.04,31.13,1014.39,2061.76,2850.54,2941.01,3135.01,349.89,324.63,15.76,0000 0000 0000 0000 000000
2013-11-11 02:07:51,-0.05,1.60,0.00,21.67,23.04,25.86,5.95,31.50,1014.33,2061.80,2850.19,2940.89,3134.84,350.19,324.87,15.76,0000 0000 0000 0000 000000
2013-11-11 02:08:52,0.17,1.60,0.00,21.68,23.04,25.81,6.05,31.25,1014.29,2061.85,2850.06,2940.51,3134.47,350.19,324.85,15.77,0000 0000 0000 0000 000000
2013-11-11 02:09:52,0.23,1.60,0.00,21.70,23.04,25.83,6.00,31.46,1014.24,2061.81,2849.77,2940.19,3134.17,350.76,324.81,15.77,0000 0000 0000 0000 000000
2013-11-11 02:10:52,0.12,1.60,0.00,21.68,23.04,25.83,5.91,30.88,1014.27,2061.77,2849.35,2940.06,3134.05,350.33,324.98,15.78,0000 0000 0000 0000 000000
2013-11-11 02:11:53,0.07,1.60,0.00,21.70,23.05,25.93,5.93,30.71,1014.28,2061.70,2849.13,2939.96,3133.84,350.48,325.09,15.79,0000 0000 0000 0000 000000
2013-11-11 02:12:53,0.02,1.60,0.00,21.73,23.05,25.91,6.05,31.38,1014.24,2061.53,2848.97,2939.62,3133.39,350.77,325.31,15.79,0000 0000 0000 0000 000000
2013-11-11 02:13:53,0.08,1.60,0.00,21.74,23.06,25.88,5.83,30.83,1014.20,2061.32,2848.48,2939.24,3133.14,349.93,324.51,15.80,0000 0000 0000 0000 000000
2013-11-11 02:14:54,0.07,1.60,0.00,21.72,23.07,25.86,5.99,30.96,1014.28,2061.49,2848.20,2939.08,3133.04,350.37,324.97,15.80,0000 0000 0000 0000 000000
2013-11-11 02:15:54,0.24,1.61,0.00,21.75,23.07,25.90,5.95,31.54,1014.22,2061.56,2848.06,2939.03,3132.96,348.85,323.36,15.81,0000 0000 0000 0000 000000
2013-11-11 02:16:54,0.03,1.61,0.00,21.77,23.07,25.95,6.01,31.38,1014.24,2061.48,2847.91,2938.95,3132.61,350.74,325.22,15.81,0000 0000 0000 0000 000000
2013-11-11 02:17:54,0.05,1.61,0.00,21.76,23.07,25.93,5.93,30.67,1014.29,2061.37,2847.47,2938.57,3132.24,349.62,324.23,15.82,0000 0000 0000 0000 000000
2013-11-11 02:18:55,0.20,1.61,0.00,21.75,23.07,25.93,5.86,31.04,1014.33,2061.36,2847.17,2938.24,3132.09,349.29,324.43,15.83,0000 0000 0000 0000 000000
2013-11-11 02:19:55,0.11,1.61,0.00,21.74,23.07,25.95,5.98,31.33,1014.33,2061.44,2847.06,2938.08,3132.01,349.34,324.32,15.83,0000 0000 0000 0000 000000
2013-11-11 02:20:55,0.15,1.61,0.00,21.74,23.07,25.90,5.71,30.83,1014.27,2061.45,2846.70,2938.03,3131.83,348.85,323.89,15.84,0000 0000 0000 0000 000000
2013-11-11 02:21:55,0.07,1.61,0.00,21.74,23.08,25.87,6.02,31.29,1014.28,2061.28,2846.27,2937.86,3131.34,349.70,324.69,15.84,0000 0000 0000 0000 000000
2013-11-11 02:22:56,0.04,1.61,0.00,21.75,23.09,25.86,5.98,31.21,1014.27,2061.19,2846.09,2937.42,3131.12,350.83,325.01,15.85,0000 0000 0000 0000 000000
2013-11-11 02:23:56,0.10,1.61,0.00,21.74,23.09,25.86,6.03,31.42,1014.27,2061.15,2845.83,2937.15,3131.03,349.80,324.42,15.86,0000 0000 0000 0000 000000
2013-11-11 02:24:56,0.09,1.61,0.00,21.75,23.09,25.90,5.98,30.88,1014.25,2061.11,2845.36,2937.05,3130.81,350.58,324.85,15.86,0000 0000 0000 0000 000000
2013-11-11 02:25:56,0.09,1.61,0.00,21.77,23.09,25.95,5.91,31.33,1014.21,2061.11,2845.13,2937.00,3130.39,350.60,325.58,15.87,0000 0000 0000 0000 000000
2013-11-11 02:26:57,0.12,1.61,0.00,21.78,23.09,25.95,6.02,31.88,1014.21,2061.10,2845.03,2936.71,3130.14,350.03,324.48,15.87,0000 0000 0000 0000 000000
2013-11-11 02:27:57,0.12,1.61,0.00,21.76,23.09,25.96,5.89,30.88,1014.19,2061.08,2844.80,2936.30,3130.04,350.23,324.82,15.88,0000 0000 0000 0000 000000
2013-11-11 02:28:57,0.14,1.61,0.00,21.78,23.10,25.94,5.89,30.58,1014.19,2061.06,2844.33,2936.11,3129.94,349.80,324.34,15.89,0000 0000 0000 0000 000000
2013-11-11 02:29:58,0.10,1.61,0.00,21.79,23.10,25.93,5.96,31.21,1014.18,2061.03,2844.12,2936.04,3129.57,349.89,324.41,15.89,0000 0000 0000 0000 000000
2013-11-11 02:30:58,0.09,1.62,0.00,21.78,23.11,25.94,6.07,30.71,1014.20,2061.03,2844.01,2936.00,3129.23,350.42,324.92,15.90,0000 0000 0000 0000 000000
2013-11-11 02:31:58,0.06,1.62,0.00,21.80,23.12,25.95,5.89,30.83,1014.20,2061.04,2843.75,2935.82,3129.08,350.06,324.57,15.90,0000 0000 0000 0000 000000
2013-11-11 02:32:58,0.14,1.62,0.00,21.77,23.12,25.92,5.98,31.17,1014.21,2061.04,2843.30,2935.38,3128.99,350.39,324.91,15.91,0000 0000 0000 0000 000000
2013-11-11 02:33:58,0.20,1.62,0.00,21.76,23.12,25.88,5.92,31.29,1014.22,2061.05,2843.11,2935.15,3128.76,349.91,324.48,15.91,0000 0000 0000 0000 000000
2013-11-11 02:34:59,0.11,1.62,0.00,21.80,23.12,25.91,5.91,31.08,1014.22,2061.03,2842.95,2935.05,3128.32,349.89,324.71,15.92,0000 0000 0000 0000 000000
2013-11-11 02:35:59,0.10,1.62,0.00,21.79,23.12,25.98,5.93,30.92,1014.25,2061.03,2842.50,2934.91,3128.11,349.73,324.64,15.93,0000 0000 0000 0000 000000